Albert J Ellis Airport
KOAJ : now visible

Airfield :











YOU CAN JOIN US ON...

 
LOGIN :

Register | Disclaimer

   EN    FR    IT 

 









Legend :    VFR   Marginal VFR   IFR   Intensive IFR   Very Intensive IFR
Visi :
Ceiling :
>= 8 km
>= 3000ft
5 to 8 km
1000 to 3000 ft
1500m to 5 km
500 to 1000 ft
800 to 1500m
200 to 500 ft
< 800m
< 200 ft
Symbols :   Thunderstorms  Fog  Heavy snow  Heavy precipitations  Wind > 20 kt







- Airport Elevation : 94 ft


KOAJ - Albert J Ellis

CURRENT METAR :
  • 180956Z AUTO 19006KT 7SM CLR 26/26 A2999 RMK AO2 SLP158 T02560256

EXPIRED METARs :
  • 180856Z AUTO 18005KT 9SM CLR 26/26 A3000 RMK AO2 SLP159 T02560256 58012
  • 180756Z AUTO 18004KT 9SM CLR 26/26 A3001 RMK AO2 SLP164 T02560256

TAF KOAJ
Valid from the 18 at 06:00 until the 19 at 06:00 UTC


180545Z 1806/1906 20005KT P6SM FEW006 SCT020
TEMPO 1810/1812 5SM BR
FM181300 20007G12KT P6SM SCT250
FM181700 21008G13KT P6SM VCTS BKN050CB
FM182300 20008KT P6SM SCT200 AMD LTD TO CLD VIS AND WIND
KZDC FIR / North America



MET'MAP, your aeronautical weather chart ! - Copyright ORBIFLY December 2007 - Disclaimer

ORBIFLY MET'MAP TEAM :

Programming & Development : Alexandra Zaïnal
Concept & Development : Baudouin d'Aumeries
Co-Development & Prog : Marc-Olivier Méhu
Technical & hardware support : Manuel Goepfert

Contact : metmap@orbifly.com




SOURCES & CREDITS :

   NOAA       Earth
Advisory